SCP
0 0 0 0 0 0 0 0 0 0 0 0 0 0 0 0 0 0 0 0 0 0 0 0 0 0 0 0 0 0 0 0 1 1 1 1 1 1 1 1 1 0 0 0
0 0 0 0 0 0 0 0 0 0 0 0 0 0 0 0 0 0 0 0 0 0 0 0 0 0 0 0 0 0 0 0 1 1 1 1 1 1 1 1 1 1 0 0
0 0 0 0 0 0 0 0 0 0 0 0 0 0 0 0 0 0 0 0 0 0 0 0 0 0 0 0 0 0 0 0 0 0 0 0 1 1 1 1 1 1 1 1
0 0 0 0 0 0 0 0 0 0 0 0 0 0 0 0 0 0 0 0 0 0 0 0 0 0 0 0 0 0 0 0 0 0 0 0 0 0 0 1 1 1 1 1
0 0 0 0 0 0 0 0 0 0 0 0 0 0 0 0 0 0 0 0 0 0 0 0 0 0 0 0 0 0 0 0 0 0 0 0 0 0 0 0 1 1 1 1
0 0 0 0 0 0 0 0 0 0 0 0 0 0 0 0 0 0 0 0 0 0 0 0 0 0 0 0 0 0 0 0 0 0 0 0 0 0 0 0 0 0 1 1
0 0 0 0 0 0 0 0 0 0 0 0 0 0 0 0 0 0 0 0 0 0 0 0 0 0 0 0 0 0 0 0 0 0 0 0 0 0 0 0 0 0 0 0
0 0 0 0 0 0 0 0 0 0 0 0 0 0 0 0 0 0 0 0 0 0 0 0 0 0 0 0 0 0 0 0 0 0 0 0 0 0 0 0 0 0 0 0
0 0 0 0 0 0 0 0 0 0 0 0 0 0 0 0 0 0 0 0 0 0 0 0 0 0 0 0 0 0 0 0 0 0 0 0 0 0 0 0 0 0 0 0
0 0 0 0 0 0 0 0 0 0 0 0 0 0 0 0 0 0 0 0 0 0 0 0 0 0 0 0 0 0 0 0 0 0 0 0 0 0 0 0 0 0 0 0
0 0 0 0 0 0 0 0 0 0 0 0 0 0 0 0 0 0 0 0 0 0 0 0 0 0 0 0 0 0 0 0 0 0 0 0 0 0 0 0 0 0 0 0
0 0 0 0 0 0 0 0 0 0 0 0 0 0 0 0 0 0 0 0 0 0 0 0 0 0 0 0 0 0 0 0 0 0 0 0 0 0 0 0 0 0 0 0
0 0 0 0 0 0 0 0 0 0 0 0 0 0 0 0 0 0 0 0 0 0 0 0 0 0 0 0 0 0 0 0 0 0 0 0 0 0 0 0 0 0 0 0
0 0 0 0 0 0 0 0 0 0 0 0 0 0 0 0 0 0 0 0 0 0 0 0 0 0 0 0 0 0 0 0 0 0 0 0 0 0 0 0 0 0 0 0
0 0 0 0 0 0 0 0 0 0 0 0 0 0 0 0 0 0 0 0 0 0 0 0 0 0 0 0 0 0 0 0 0 0 0 0 0 0 0 0 0 0 0 0
0 0 0 0 0 0 0 0 0 0 0 0 0 0 0 0 0 0 0 0 0 0 0 0 0 0 0 0 0 0 0 0 0 0 0 0 0 0 0 0 0 0 0 0
0 0 0 0 0 0 0 0 0 0 0 0 0 0 0 0 0 0 0 0 0 0 0 0 0 0 0 0 0 0 0 0 0 0 0 0 0 0 0 0 0 0 0 0
0 0 0 0 0 0 0 0 0 0 0 0 0 0 0 0 0 0 0 0 0 0 0 0 0 0 0 0 0 0 0 0 0 0 0 0 0 0 0 0 0 0 0 0
0 0 0 0 0 0 0 0 0 0 0 0 0 0 0 0 0 0 0 0 0 0 0 0 0 0 0 0 0 0 0 0 0 0 0 0 0 0 0 0 0 0 0 0
0 0 0 0 0 0 0 0 0 0 0 0 0 0 0 0 0 0 0 0 0 0 0 0 0 0 0 0 0 0 0 0 0 0 0 0 0 0 0 0 0 0 0 0
0 0 0 0 0 0 0 0 0 0 0 0 0 0 0 0 0 0 0 0 0 0 0 0 0 0 0 0 0 0 0 0 0 0 0 0 0 0 0 0 0 0 0 0
0 0 0 0 0 0 0 0 0 0 0 0 0 0 0 0 0 0 0 0 0 0 0 0 0 0 0 0 0 0 0 0 0 0 0 0 0 0 0 0 0 0 0 0
0 0 0 0 0 0 0 0 0 0 0 0 0 0 0 0 0 0 0 0 0 0 0 0 0 0 0 0 0 0 0 0 0 0 0 0 0 0 0 0 0 0 0 0
0 0 0 0 0 0 0 0 0 0 0 0 0 0 0 0 0 0 0 0 0 0 0 0 0 0 0 0 0 0 0 0 0 0 0 0 0 0 0 0 0 0 0 0
0 0 0 0 0 0 0 0 0 0 0 0 0 0 0 0 0 0 0 0 0 0 0 0 0 0 0 0 0 0 0 0 0 0 0 0 0 0 0 0 0 0 0 0
0 0 0 0 0 0 0 0 0 0 0 0 0 0 0 0 0 0 0 0 0 0 0 0 0 0 0 0 0 0 0 0 0 0 0 0 0 0 0 0 0 0 0 0
Wind_Speed
2 1 2 2 4 4 3 3 3 2 1 2 6 8 7 5 5 5 4 4 5 5 4 4 4 4 4 4 4 5 5 4 3 2 2 2 2 1 1 2 2 2 2 2
2 2 3 3 2 2 2 3 3 2 1 2 5 9 8 6 6 5 5 5 5 4 4 5 5 4 4 5 5 4 4 4 4 3 3 2 2 2 2 2 3 3 2 2
2 1 1 2 1 1 2 3 3 2 3 3 4 7 5 4 5 5 5 5 4 4 5 5 5 5 4 5 5 5 5 5 4 3 2 2 1 1 1 1 2 3 3 2
1 0 0 1 1 2 3 1 2 2 2 2 2 5 4 4 5 6 5 5 4 4 4 5 6 6 6 5 4 4 5 4 4 3 3 4 3 3 3 2 2 3 3 3
1 1 0 1 1 1 0 1 2 2 3 3 3 3 6 3 4 5 5 5 4 4 4 5 6 6 6 5 5 4 4 4 4 3 3 4 3 2 1 1 2 2 2 3
0 1 1 1 1 1 0 1 2 2 1 3 4 4 6 3 5 4 4 5 4 3 4 4 4 4 4 4 4 4 4 4 4 4 3 4 4 2 2 2 2 2 2 2
2 2 1 0 1 1 1 1 1 1 1 5 2 4 8 3 3 3 4 4 4 3 3 3 4 5 4 5 5 5 5 5 5 5 4 5 4 4 4 3 3 3 2 2
3 3 4 2 1 2 2 1 2 2 3 3 1 6 7 1 2 2 2 2 3 4 3 3 4 4 4 5 5 6 6 5 5 5 5 4 4 3 3 4 3 4 3 3
3 2 2 1 1 1 2 2 1 0 1 3 5 5 4 2 2 2 2 2 3 4 4 3 3 4 4 5 5 6 6 5 6 6 5 5 5 4 4 4 3 3 2 2
0 2 2 2 1 2 2 0 2 2 2 4 5 5 5 5 5 4 4 4 3 3 3 3 3 4 4 4 4 4 6 6 5 6 5 5 5 4 4 3 4 3 3 3
0 3 2 2 5 5 4 2 3 2 2 3 4 6 2 5 4 4 5 4 3 3 4 3 3 3 3 3 3 4 5 5 5 6 5 4 4 4 4 4 4 4 3 4
2 2 2 3 1 2 3 4 5 4 4 4 4 8 2 2 3 3 3 3 3 3 3 3 3 3 3 3 3 4 5 6 5 5 4 5 4 4 4 4 4 4 4 4
4 4 2 1 1 1 3 4 4 2 1 4 5 9 1 1 1 2 2 2 2 2 2 2 2 2 3 3 3 4 4 4 4 4 4 5 4 5 5 4 4 4 4 4
2 3 6 6 3 5 5 6 6 6 5 6 10 10 8 4 3 2 2 3 3 3 3 2 2 3 3 3 3 3 3 3 4 4 5 5 5 5 5 4 4 4 4 4
2 3 4 5 3 2 6 8 10 13 11 10 9 10 12 7 5 4 3 3 3 3 3 3 3 3 3 3 3 3 3 3 4 4 5 5 4 4 4 4 3 3 3 4
3 3 1 4 3 3 7 10 11 13 13 14 14 17 11 7 4 4 4 4 4 4 4 4 3 3 4 4 4 3 4 4 4 4 4 3 4 4 4 4 3 3 3 3
5 5 3 3 0 2 11 13 14 11 11 11 16 15 6 6 6 7 6 5 5 5 5 5 4 4 4 4 4 4 4 3 4 4 3 3 3 4 4 4 3 3 4 3
7 5 3 1 1 9 10 4 10 11 12 13 12 10 7 8 6 5 4 5 5 4 4 4 3 3 3 2 2 2 2 3 4 4 3 3 3 3 3 3 3 3 3 3
5 6 4 4 5 10 7 4 6 7 10 11 14 13 10 5 5 7 5 4 5 4 4 3 3 3 2 2 3 3 3 3 3 4 4 3 4 4 4 4 4 3 3 3
4 4 5 5 5 9 6 3 3 3 8 7 9 10 7 3 4 6 1 1 1 1 1 1 1 1 2 1 2 3 3 3 4 4 3 3 3 4 4 4 3 2 3 3
6 6 8 8 8 11 5 4 6 5 7 1 2 3 3 5 6 2 0 0 1 1 1 1 1 1 1 1 3 3 3 3 3 2 2 2 3 3 3 3 2 3 3 2
11 9 9 8 9 12 5 7 9 7 1 0 1 2 3 3 2 0 0 0 0 1 1 1 1 0 1 2 3 3 3 2 2 3 3 2 2 2 2 3 2 2 3 3
10 11 8 11 11 3 7 7 4 1 1 1 2 2 2 2 3 2 1 1 1 0 0 1 1 1 1 1 2 3 2 2 3 3 3 2 2 2 2 3 3 2 2 3
6 3 4 7 8 4 5 4 3 2 3 2 2 2 2 3 3 2 2 1 1 0 0 0 1 1 0 0 1 1 2 3 3 3 2 3 3 2 2 2 2 3 3 3
6 5 5 8 6 4 5 6 6 4 2 2 2 2 2 2 3 3 2 2 1 1 0 1 1 2 1 0 0 1 2 3 3 3 2 2 2 2 2 2 1 2 2 3
7 8 9 9 6 5 6 4 4 4 5 5 4 3 2 3 3 3 3 2 2 1 1 1 1 1 1 1 0 0 1 3 4 3 2 2 2 2 2 2 1 1 1 1
Wind_Direction
168 189 207 235 240 269 313 285 275 302 79 245 253 265 264 234 218 227 223 210 211 212 197 169 165 158 160 163 170 173 172 174 175 173 166 164 183 182 175 161 155 145 143 149
153 233 259 282 272 274 283 288 294 320 28 281 277 274 266 240 219 216 224 221 213 204 192 177 170 165 168 168 172 174 173 175 180 186 184 181 175 179 173 164 159 159 161 165
174 64 302 268 308 266 263 264 291 306 316 261 287 284 236 221 211 213 216 217 219 204 193 183 178 179 179 185 183 182 177 174 176 179 186 163 145 129 156 186 174 172 168 174
232 274 304 244 271 269 270 338 315 318 310 277 230 289 259 211 209 209 212 209 210 211 194 182 179 185 190 192 179 178 174 173 174 169 181 177 181 196 210 193 179 173 173 178
222 84 316 236 286 282 300 356 301 280 272 287 232 248 273 202 221 213 203 201 200 202 193 184 181 187 186 181 176 179 171 176 176 177 187 191 195 206 181 150 161 168 171 170
117 33 339 337 8 353 285 279 261 254 251 267 220 214 270 213 209 197 188 189 190 193 193 183 173 170 175 174 175 175 177 183 184 188 194 202 197 182 164 174 186 185 181 178
208 184 160 252 147 155 251 70 15 331 263 249 192 218 251 223 165 173 180 187 184 184 183 181 172 175 182 181 181 183 184 192 191 196 207 209 200 183 186 191 197 185 186 192
190 222 178 199 188 181 215 214 171 220 252 280 253 236 251 200 118 112 135 153 168 178 182 191 190 183 185 187 187 188 191 195 195 198 212 212 200 190 197 198 197 189 189 195
192 190 115 132 335 309 177 210 323 107 305 285 253 249 275 167 158 163 177 185 195 184 184 191 190 184 186 191 196 194 195 199 200 199 208 213 204 194 196 196 191 185 179 177
301 151 155 140 232 271 297 306 129 171 225 264 268 247 237 215 214 200 197 211 214 188 185 189 191 189 188 195 202 199 196 202 202 200 206 211 207 198 193 188 190 186 176 164
231 140 161 185 203 193 178 193 200 210 231 227 271 265 232 182 179 186 203 204 205 204 195 193 199 190 182 187 195 205 199 200 201 202 204 205 206 199 190 186 188 184 173 164
183 152 205 205 108 1 217 207 178 185 234 228 253 269 274 123 142 170 201 203 199 204 193 191 188 180 183 193 203 207 202 201 201 196 196 199 198 187 186 189 187 174 168 166
159 156 141 251 259 238 238 226 212 199 203 212 221 259 259 105 183 194 200 216 205 200 198 194 185 193 199 198 204 210 203 203 196 186 191 195 192 188 189 187 177 168 170 169
155 188 201 213 213 168 207 216 204 193 209 229 229 253 271 266 259 256 228 219 210 202 203 203 208 216 214 204 204 209 204 196 191 185 186 192 193 188 185 177 173 173 172 172
162 212 235 262 276 228 225 218 205 212 219 226 242 247 259 264 265 257 237 223 214 218 222 216 216 219 218 211 212 210 204 191 183 181 187 195 189 179 172 169 172 169 168 174
181 202 206 268 250 255 261 240 220 225 231 243 260 269 263 267 268 264 249 224 226 231 229 224 219 215 217 214 213 208 202 190 176 182 192 189 178 174 173 169 168 165 170 171
177 170 182 246 242 324 263 226 207 213 214 210 235 247 257 259 249 248 249 234 234 235 226 221 218 216 217 212 206 204 198 176 171 181 184 179 176 178 175 165 162 175 183 175
171 170 189 200 130 239 243 182 192 214 233 224 238 251 252 254 256 249 227 218 230 231 227 221 218 220 216 206 201 188 166 165 171 177 183 177 171 173 164 160 172 187 185 179
187 179 191 188 231 267 271 213 185 205 251 227 232 246 252 260 292 273 243 224 228 224 218 209 207 207 199 193 188 164 163 164 170 185 188 180 172 171 170 180 187 188 176 177
204 195 200 199 219 240 244 174 158 149 271 241 219 234 240 208 253 260 220 177 210 190 173 168 162 145 162 185 158 159 171 171 190 195 187 170 167 173 181 187 184 175 170 177
177 196 211 214 232 256 245 154 125 177 247 297 192 222 209 208 232 250 147 245 175 151 108 111 121 150 180 165 151 168 175 195 195 160 147 150 161 171 173 170 168 160 161 158
181 183 198 198 221 246 177 151 186 216 280 176 206 213 211 225 254 294 257 246 185 82 76 104 114 108 105 137 152 172 198 193 135 133 142 153 157 156 152 154 158 155 157 161
204 196 191 201 219 240 171 199 221 237 270 287 273 271 229 233 241 243 257 279 294 33 147 115 130 106 59 123 156 182 205 132 127 133 145 145 138 140 149 157 160 160 163 167
234 230 223 246 253 250 236 244 264 259 242 272 277 272 243 239 239 240 249 268 289 302 260 128 132 154 261 266 167 176 135 131 133 142 147 144 145 143 141 154 164 169 177 180
211 182 218 251 267 288 267 243 242 244 245 260 269 257 236 221 240 236 238 239 233 239 227 190 198 213 244 221 151 117 124 131 135 140 141 141 146 153 150 152 168 183 195 193
201 189 198 233 227 219 248 242 230 237 247 239 232 252 249 215 228 234 239 229 213 215 222 226 229 216 240 192 179 112 144 150 148 148 153 157 158 157 153 148 102 67 150 132